DW1009 Weather Reports


time (UTC)temp
C
wind
direction
speed
KPH
gust
KPH
rain 1hr
cm
rain 24hr
cm
rain mn
cm
humidity
%
barometer
mb
20260507033346 16 340 0.0 8.0 0.00 0.00 0.00 90 1014.6
20260507031346 16 340 4.8 12.9 0.00 0.00 0.00 89 1014.5
20260507030347 16 281 3.2 14.5 0.00 0.00 0.00 88 1014.4
20260507025347 17 129 1.6 16.1 0.00 0.00 0.00 88 1014.3
20260507023347 17 195 1.6 6.4 0.00 0.00 0.00 87 1014.2
20260507022347 17 260 1.6 6.4 0.00 0.00 0.00 86 1014.1
20260507021346 17 270 3.2 11.3 0.00 0.00 0.00 85 1014.1
20260507020346 17 306 1.6 11.3 0.00 0.00 0.00 84 1014.1
20260507015346 18 269 1.6 11.3 0.00 0.00 0.00 84 1014.1
20260507014346 18 277 3.2 12.9 0.00 0.00 0.00 83 1014.0
20260507013346 18 272 3.2 8.0 0.00 0.00 0.00 83 1014.1
20260507011346 18 309 4.8 11.3 0.00 0.00 0.00 83 1014.1
20260507005346 18 192 1.6 11.3 0.00 0.00 0.00 83 1014.0
20260507002346 19 40 3.2 16.1 0.00 0.00 0.00 81 1014.1
20260507000346 19 278 4.8 12.9 0.00 0.00 0.00 82 1014.0
20260506235346 19 120 3.2 12.9 0.00 0.00 0.00 82 1014.1
20260506234347 19 46 1.6 12.9 0.00 0.00 0.00 82 1014.0
20260506233346 20 283 4.8 12.9 0.00 0.00 0.00 80 1014.1
20260506232346 19 208 8.0 12.9 0.00 0.00 0.00 80 1014.1
20260506230346 19 217 3.2 16.1 0.00 0.00 0.00 80 1014.3
20260506224346 19 236 6.4 16.1 0.00 0.00 0.00 80 1014.4
20260506223346 19 229 8.0 16.1 0.00 0.00 0.00 80 1014.6
20260506222346 19 241 6.4 14.5 0.00 0.00 0.00 81 1014.7
20260506221346 18 278 4.8 14.5 0.00 0.00 0.00 81 1014.8
20260506220346 19 273 11.3 17.7 0.00 0.00 0.00 80 1014.9
20260506215346 18 257 3.2 14.5 0.00 0.00 0.00 81 1015.0
20260506214346 19 221 6.4 12.9 0.00 0.00 0.00 80 1015.1
20260506213346 19 317 1.6 14.5 0.00 0.00 0.00 80 1015.2
20260506211346 18 240 14.5 16.1 0.00 0.00 0.00 80 1015.2
20260506210346 18 220 11.3 14.5 0.00 0.00 0.00 80 1015.4
20260506205346 19 212 4.8 12.9 0.00 0.00 0.00 80 1015.3
20260506204346 18 271 11.3 12.9 0.00 0.00 0.00 82 1015.5
20260506203346 18 237 9.7 14.5 0.00 0.00 0.00 82 1015.7
20260506202346 18 220 3.2 12.9 0.00 0.00 0.00 82 1015.7
20260506200346 18 189 1.6 11.3 0.00 0.00 0.00 84 1015.8
20260506195346 18 238 9.7 14.5 0.00 0.00 0.00 83 1015.9
20260506194347 18 247 1.6 12.9 0.00 0.00 0.00 83 1015.9
20260506192345 18 258 6.4 14.5 0.00 0.00 0.00 82 1016.2
20260506191347 18 225 6.4 12.9 0.00 0.00 0.00 83 1016.3
20260506190346 18 209 8.0 12.9 0.00 0.00 0.00 82 1016.4
20260506185346 18 211 4.8 11.3 0.00 0.00 0.00 83 1016.4
20260506183346 18 234 9.7 14.5 0.00 0.00 0.00 82 1016.5
20260506180345 18 200 9.7 11.3 0.00 0.00 0.00 82 1016.5
20260506175345 17 269 4.8 11.3 0.00 0.00 0.00 82 1016.6
20260506174345 17 342 6.4 9.7 0.00 0.00 0.00 82 1016.5
20260506173345 17 262 3.2 12.9 0.00 0.00 0.00 81 1016.5
20260506172346 17 281 4.8 9.7 0.00 0.00 0.00 81 1016.5
20260506171346 17 338 3.2 9.7 0.00 0.00 0.00 81 1016.5
20260506170346 17 219 8.0 9.7 0.00 0.00 0.00 80 1016.4
20260506165345 17 234 3.2 8.0 0.00 0.00 0.00 80 1016.2
20260506164346 17 349 3.2 9.7 0.00 0.00 0.00 81 1016.3
20260506163346 17 273 4.8 8.0 0.00 0.00 0.00 81 1016.2
20260506162346 17 314 4.8 6.4 0.00 0.00 0.00 82 1016.2
20260506161347 17 340 1.6 6.4 0.00 0.00 0.00 82 1016.3
20260506160346 17 284 0.0 4.8 0.00 0.00 0.00 82 1016.1
20260506155345 17 105 1.6 4.8 0.00 0.00 0.00 84 1016.2
20260506154346 16 114 0.0 6.4 0.00 0.00 0.00 85 1016.1
20260506152345 16 114 1.6 4.8 0.00 0.00 0.00 89 1016.2
20260506151346 15 39 4.8 4.8 0.00 0.00 0.00 90 1016.3
20260506145345 15 55 1.6 3.2 0.00 0.00 0.00 91 1016.3
20260506144346 14 36 0.0 4.8 0.00 0.00 0.00 92 1016.3
20260506143346 14 47 0.0 4.8 0.00 0.00 0.00 92 1016.1
20260506142345 13 113 1.6 4.8 0.00 0.00 0.00 93 1016.2
20260506141345 13 117 0.0 4.8 0.00 0.00 0.00 93 1016.1
20260506140345 13 56 4.8 4.8 0.00 0.00 0.00 93 1016.0
20260506135345 13 76 0.0 4.8 0.00 0.00 0.00 93 1016.0
20260506133345 13 51 1.6 3.2 0.00 0.00 0.00 93 1015.9
20260506131346 13 32 1.6 4.8 0.00 0.00 0.00 93 1015.7
20260506130345 12 61 0.0 3.2 0.00 0.00 0.00 93 1015.5
20260506125345 12 94 1.6 3.2 0.00 0.00 0.00 93 1015.4
20260506124345 12 58 1.6 3.2 0.00 0.00 0.00 93 1015.3
20260506123346 12 110 1.6 3.2 0.00 0.00 0.00 93 1015.2
20260506122346 12 110 0.0 0.0 0.00 0.00 0.00 93 1015.1
20260506121345 12 110 0.0 1.6 0.00 0.00 0.00 93 1015.1
20260506120345 12 110 0.0 1.6 0.00 0.00 0.00 93 1015.1
20260506115345 12 110 0.0 0.0 0.00 0.00 0.00 92 1015.1
20260506114345 12 110 0.0 0.0 0.00 0.00 0.00 92 1015.0
20260506112345 13 110 0.0 0.0 0.00 0.00 0.00 92 1015.0
20260506111345 13 110 0.0 0.0 0.00 0.00 0.00 92 1014.9
20260506110347 13 110 0.0 0.0 0.00 0.00 0.00 92 1014.9
20260506105346 13 110 0.0 0.0 0.00 0.00 0.00 92 1014.9
20260506104345 13 110 0.0 3.2 0.00 0.00 0.00 92 1014.9
20260506103345 13 167 0.0 0.0 0.00 0.00 0.00 92 1014.9
20260506102345 13 167 0.0 1.6 0.00 0.00 0.00 91 1014.9
20260506101345 13 167 0.0 0.0 0.00 0.00 0.00 91 1014.9
20260506100345 13 167 0.0 0.0 0.00 0.00 0.00 91 1014.9
20260506095345 13 167 0.0 0.0 0.00 0.00 0.00 91 1014.9
20260506094345 14 167 0.0 0.0 0.00 0.00 0.00 90 1015.0
20260506091345 15 167 0.0 1.6 0.00 0.00 0.00 90 1015.1
20260506085345 15 167 0.0 3.2 0.00 0.00 0.00 91 1015.3
20260506083345 15 160 0.0 1.6 0.00 0.00 0.00 90 1015.4
20260506081345 15 159 1.6 4.8 0.00 0.00 0.00 90 1015.3
20260506080346 15 142 3.2 3.2 0.00 0.00 0.00 90 1015.4
20260506073346 15 182 0.0 3.2 0.00 0.00 0.00 89 1015.5
20260506072345 15 165 0.0 3.2 0.00 0.00 0.00 89 1015.4
20260506071345 15 136 0.0 4.8 0.00 0.00 0.00 89 1015.3
20260506070415 15 168 1.6 6.4 0.00 0.00 0.00 88 1015.3
20260506062345 15 171 0.0 3.2 0.00 0.00 0.00 88 1015.1
20260506061345 15 139 0.0 3.2 0.00 0.00 0.00 89 1015.0
20260506060345 15 150 0.0 6.4 0.00 0.00 0.00 88 1014.9
20260506051344 16 141 4.8 4.8 0.00 0.00 0.00 89 1014.6
20260506050345 16 249 4.8 4.8 0.00 0.00 0.00 88 1014.5
20260506043345 16 242 0.0 4.8 0.00 0.00 0.00 87 1014.1
20260506042344 16 234 3.2 4.8 0.00 0.00 0.00 86 1014.1